Temp
86 88 87 78 73 85 74 75 70 75 78 82 80 80 82 83 85 85 87 86 85 88 88 86 84 81 81 80 78 79 78 74
84 87 87 82 87 73 76 61 60 70 70 74 74 78 81 81 83 84 85 86 86 87 87 86 84 83 81 81 79 79 79 78
82 78 79 78 77 79 80 75 67 63 71 81 80 81 81 81 84 85 85 86 86 87 84 85 85 81 80 82 79 79 80 79
78 86 88 87 81 81 72 67 74 72 73 82 81 82 82 83 81 85 87 86 83 84 85 85 85 85 84 83 81 79 80 79
72 79 83 79 83 83 81 77 70 69 72 80 81 81 83 81 80 81 82 79 80 83 83 84 84 84 83 83 84 78 79 79
72 73 81 75 80 83 80 73 71 74 77 77 78 80 81 78 80 75 75 76 81 81 81 83 84 81 79 82 84 81 78 81
79 79 78 80 80 81 78 79 73 77 79 83 81 80 82 79 78 71 72 76 78 80 81 81 82 82 81 83 82 82 81 81
74 78 78 75 79 80 81 82 81 81 79 84 84 82 78 77 77 75 74 70 71 74 76 76 80 82 84 82 82 82 80 81
68 75 74 70 77 78 80 81 81 76 81 83 78 78 77 76 78 76 67 66 68 72 74 74 77 79 79 82 83 81 80 81
69 71 59 72 78 78 76 78 79 77 78 81 79 78 77 76 67 67 69 70 72 74 74 75 77 74 74 79 79 81 80 80
65 66 73 72 73 74 74 76 78 77 77 80 78 73 65 70 70 67 67 67 67 70 69 66 67 70 70 71 75 80 80 80
68 61 58 72 73 76 76 69 78 79 78 77 76 72 61 65 70 67 64 64 63 64 64 63 65 70 70 69 72 77 80 76
67 64 70 73 74 77 63 68 77 79 79 76 73 66 64 66 65 65 64 64 62 61 59 59 61 63 60 60 59 61 60 58
67 63 59 73 73 67 69 74 76 77 77 69 67 64 62 62 61 61 62 63 59 57 57 58 59 58 55 54 55 56 55 54
68 65 68 72 72 73 74 74 74 74 75 71 65 62 61 59 59 60 59 58 57 56 55 56 56 55 53 53 53 52 52 51
65 68 69 71 71 74 76 75 75 76 73 72 63 61 59 59 58 58 57 56 56 54 53 52 54 55 54 55 56 55 53 52
67 70 70 71 73 73 72 73 72 73 71 65 62 59 60 57 59 58 56 55 55 54 53 52 53 54 56 57 57 55 54 54
70 73 72 70 72 73 70 69 70 65 61 61 62 59 60 59 61 59 57 57 55 54 54 53 54 56 58 59 59 60 60 58
73 76 72 73 72 74 71 70 70 68 63 61 62 64 63 59 59 57 59 58 56 55 56 56 57 59 62 61 61 61 63 61
MSLP
1000.55 1000.68 1000.95 1001.18 1001.30 1000.91 1000.43 1000.50 1000.76 1000.32 1000.65 1001.36 1002.36 1002.84 1003.35 1003.60 1003.87 1004.41 1005.03 1006.01 1006.88 1007.39 1008.00 1008.72 1009.47 1010.27 1010.44 1010.82 1011.25 1011.41 1011.45 1012.02
1000.45 1000.79 1000.60 1000.69 1000.44 1000.63 1000.44 999.95 999.85 999.63 1000.39 1000.45 1001.80 1002.38 1002.95 1003.57 1004.03 1004.73 1005.55 1006.41 1006.92 1007.47 1008.16 1008.88 1009.79 1010.44 1010.68 1011.03 1011.22 1011.31 1011.50 1011.61
1000.34 1000.06 999.47 1000.52 1000.15 1000.00 999.58 999.82 999.26 999.20 999.20 1000.30 1001.16 1002.15 1002.75 1003.62 1004.18 1004.91 1005.82 1006.60 1007.18 1007.81 1008.77 1009.15 1009.87 1010.60 1010.84 1010.92 1011.20 1011.27 1011.24 1011.45
999.05 998.90 999.30 998.92 999.11 999.38 999.19 999.40 999.57 999.85 999.42 1000.87 1001.73 1002.53 1003.27 1003.90 1004.99 1005.30 1005.91 1006.93 1007.58 1008.25 1008.78 1009.41 1009.81 1010.19 1010.56 1010.80 1010.90 1011.23 1011.34 1011.41
999.00 999.39 999.54 999.03 998.96 999.26 999.40 999.62 998.96 999.21 999.32 1001.03 1001.86 1002.58 1003.58 1004.45 1005.44 1006.20 1006.67 1007.69 1008.40 1008.47 1008.86 1009.33 1009.74 1010.15 1010.38 1010.73 1010.64 1011.26 1011.32 1011.41
997.97 998.09 997.86 998.68 998.48 998.68 998.86 998.59 998.35 998.81 998.86 1000.49 1001.59 1002.48 1003.72 1005.25 1006.04 1007.33 1008.01 1008.50 1008.41 1008.83 1009.16 1009.46 1009.66 1010.14 1010.51 1010.53 1010.57 1010.99 1011.25 1011.13
999.12 998.86 998.96 998.36 998.02 998.30 998.43 998.53 998.18 998.28 998.35 999.20 1001.28 1002.79 1003.96 1005.58 1006.70 1008.11 1008.75 1008.79 1009.03 1009.21 1009.38 1009.54 1009.61 1009.69 1010.26 1010.43 1010.59 1010.84 1010.97 1011.08
999.30 999.11 999.19 998.94 998.74 998.49 998.39 998.26 998.36 998.62 999.02 1000.51 1001.94 1003.50 1005.13 1006.40 1007.33 1008.36 1009.12 1010.03 1010.45 1010.41 1010.26 1010.16 1009.87 1009.66 1009.61 1010.20 1010.54 1010.83 1011.06 1011.14
999.07 999.19 999.29 999.01 998.67 999.00 998.74 999.04 999.11 999.30 999.72 1001.22 1002.87 1004.28 1005.77 1007.06 1007.87 1008.78 1010.45 1011.14 1011.14 1010.89 1010.70 1010.62 1010.44 1010.32 1010.12 1009.80 1010.29 1010.73 1011.04 1011.19
999.60 999.72 999.48 999.83 1000.36 1000.29 1000.10 999.95 1000.24 1000.69 1001.41 1002.21 1003.66 1005.47 1007.13 1008.15 1009.70 1010.46 1010.94 1011.40 1011.34 1011.18 1011.13 1010.96 1010.78 1010.86 1010.82 1010.43 1010.09 1010.35 1010.94 1011.28
1000.16 999.81 999.68 1000.60 1000.99 1000.86 1000.59 1000.38 1001.11 1001.49 1002.41 1003.26 1004.90 1007.06 1009.02 1010.05 1010.83 1011.56 1011.96 1012.33 1012.45 1012.23 1012.06 1012.08 1011.59 1011.12 1010.84 1010.64 1010.21 1010.20 1010.89 1011.43
1000.33 1000.21 999.88 1000.70 1002.02 1002.44 1002.13 1001.12 1001.78 1002.36 1003.06 1004.31 1005.76 1006.83 1009.72 1011.15 1011.59 1012.31 1012.80 1013.06 1013.08 1013.04 1012.87 1012.53 1011.86 1010.91 1010.51 1010.48 1010.38 1010.30 1011.08 1011.84
1000.72 1000.98 1000.86 1002.15 1002.96 1003.09 1002.68 1002.49 1002.83 1003.16 1004.06 1005.29 1006.44 1008.63 1010.57 1011.85 1012.57 1013.00 1013.25 1013.37 1013.60 1013.65 1013.56 1013.26 1012.66 1012.00 1011.69 1011.77 1012.13 1012.69 1013.21 1014.18
1001.49 1001.60 1002.14 1003.28 1003.77 1003.74 1004.21 1004.16 1004.16 1004.49 1005.25 1007.14 1008.75 1010.28 1011.52 1012.42 1013.19 1013.65 1013.84 1013.99 1014.33 1014.33 1014.27 1014.04 1013.71 1013.29 1013.26 1013.46 1014.04 1014.19 1014.67 1015.62
1002.16 1002.70 1004.08 1004.62 1004.57 1005.09 1005.14 1005.20 1005.53 1006.03 1006.89 1008.19 1009.65 1011.01 1012.13 1013.03 1013.72 1014.14 1014.53 1014.74 1015.02 1015.07 1015.02 1014.96 1014.86 1014.72 1014.62 1015.18 1015.28 1015.58 1015.88 1016.74
1003.61 1004.04 1004.44 1005.00 1005.63 1005.54 1005.62 1006.05 1006.64 1007.35 1008.27 1009.24 1010.55 1011.93 1013.00 1013.60 1014.10 1014.57 1015.04 1015.32 1015.55 1015.67 1015.74 1016.03 1015.98 1015.96 1015.97 1016.17 1016.30 1016.51 1016.91 1017.81
1003.60 1004.26 1005.06 1005.63 1005.86 1006.21 1006.86 1007.49 1007.98 1008.61 1009.45 1010.68 1011.67 1012.67 1013.42 1013.97 1014.26 1014.87 1015.39 1015.76 1016.02 1016.06 1016.46 1016.79 1016.82 1016.92 1017.05 1017.03 1017.11 1017.31 1018.02 1018.72
1002.72 1003.86 1004.67 1005.46 1006.67 1007.11 1007.44 1008.18 1008.92 1009.71 1010.89 1011.83 1012.32 1013.16 1013.76 1014.06 1014.59 1015.11 1015.46 1015.85 1016.30 1016.80 1017.06 1017.34 1017.50 1017.67 1017.75 1017.83 1017.86 1017.97 1018.45 1019.29
1003.92 1004.83 1005.57 1006.21 1007.22 1007.55 1008.02 1008.69 1009.41 1010.26 1011.34 1012.09 1012.88 1013.25 1013.75 1014.35 1014.97 1015.53 1015.77 1016.06 1016.68 1017.13 1017.40 1017.77 1017.95 1018.04 1018.27 1018.61 1018.65 1018.64 1018.95 1019.69
Wind_Speed
9 16 17 13 15 16 11 6 9 9 5 8 4 5 6 7 7 8 8 9 9 7 7 8 6 3 2 3 1 3 6 5
11 7 8 9 14 10 10 14 8 7 5 7 8 9 8 7 8 7 8 10 9 8 9 7 5 3 2 1 3 5 5 5
10 12 14 10 12 10 9 5 10 9 6 5 6 8 8 5 5 8 10 10 8 8 7 7 5 2 4 2 4 4 3 5
14 5 6 18 19 18 11 13 10 9 5 6 5 6 5 6 5 6 10 11 8 6 6 4 1 2 3 2 2 3 3 4
11 9 9 9 12 11 12 7 7 10 2 5 6 7 7 6 7 8 9 11 8 7 6 4 2 1 3 4 3 4 5 5
10 4 7 18 15 13 13 11 11 11 7 7 8 9 10 9 9 11 7 7 7 6 4 3 1 3 6 6 5 6 5 5
12 5 6 11 14 15 17 16 15 12 7 1 10 9 9 11 10 11 8 6 5 4 3 5 6 5 6 7 5 5 6 6
11 6 9 11 15 13 15 16 11 10 10 3 10 12 12 10 10 11 10 11 4 1 2 5 6 7 7 8 7 7 8 8
12 4 6 11 12 12 12 9 12 13 2 9 12 12 11 9 8 12 12 6 2 4 6 7 8 8 10 8 9 9 9 10
10 4 13 6 1 4 7 4 4 2 4 8 12 14 12 13 11 9 6 2 2 5 7 9 10 10 10 12 10 11 11 11
10 11 10 9 5 4 7 9 4 3 7 12 16 18 11 10 9 7 5 3 5 7 9 10 11 11 11 11 10 12 12 12
7 14 13 3 6 3 2 8 7 5 10 14 14 10 8 7 7 6 5 2 4 5 6 8 10 7 7 7 8 12 11 8
10 10 5 6 3 2 9 4 6 7 9 10 6 8 12 8 7 6 4 5 5 6 6 8 8 6 9 11 11 11 14 14
10 11 14 5 6 6 6 6 6 8 9 14 14 13 11 9 7 5 5 7 7 6 6 8 9 9 11 13 9 12 16 14
4 6 6 2 5 3 1 7 8 9 11 14 13 11 10 8 6 5 6 7 7 7 8 10 10 10 13 10 12 14 16 16
4 5 4 6 6 3 5 7 7 10 11 12 14 11 10 8 7 6 6 7 8 9 9 11 10 11 11 11 13 16 17 16
3 6 6 6 7 9 11 10 11 11 11 13 13 11 10 9 9 8 8 9 8 9 10 11 10 11 10 12 14 16 15 13
1 7 3 9 9 11 13 12 13 15 13 11 11 11 11 9 10 9 10 11 11 10 11 10 10 11 11 11 11 14 17 12
5 7 6 10 10 9 12 12 12 14 14 15 13 12 13 12 10 12 13 13 14 11 11 11 11 14 14 15 12 12 16 14
Wind_Direction
215 206 222 183 222 246 274 251 279 266 226 229 189 177 172 188 189 179 163 140 162 140 115 97 81 29 337 72 198 77 112 106
164 185 221 254 211 202 225 265 256 206 259 271 185 192 188 198 187 164 148 148 151 124 107 92 61 13 347 28 194 121 106 111
163 206 204 190 220 237 296 313 297 270 216 80 166 181 189 161 181 168 158 159 147 112 104 93 84 36 299 205 201 187 161 118
225 143 273 209 214 213 237 206 228 301 320 129 166 197 209 146 151 172 159 163 105 133 137 111 135 206 195 255 200 193 128 104
206 190 201 230 213 221 230 284 222 262 239 139 146 171 146 126 129 147 159 113 152 163 158 155 169 215 253 224 193 158 161 130
259 359 220 204 231 216 217 229 239 245 272 150 173 169 137 125 133 115 122 163 169 167 170 209 220 168 231 218 204 175 200 154
264 299 266 260 216 209 213 236 263 266 260 235 175 161 130 123 128 128 133 151 145 156 220 255 250 205 233 227 202 203 201 175
251 217 244 241 237 254 233 250 271 279 270 39 133 123 117 117 139 149 159 105 108 10 319 305 290 260 231 217 211 197 195 182
247 169 251 229 223 227 213 241 238 230 46 140 139 142 128 125 132 97 96 110 162 282 302 300 288 274 270 244 209 192 199 174
258 197 235 68 135 240 255 213 202 131 94 145 137 107 93 80 103 104 108 103 335 310 299 297 303 294 280 263 222 191 198 178
248 233 242 162 140 187 221 186 168 175 147 130 130 113 88 98 99 94 82 37 323 324 321 310 293 284 269 248 229 193 193 184
196 257 239 57 101 11 234 234 137 161 151 146 158 201 101 102 102 103 89 31 347 336 331 326 322 297 254 216 205 187 182 85
216 241 242 102 107 219 228 81 116 141 143 148 138 54 116 113 94 80 72 61 39 29 14 356 354 38 65 72 64 88 90 86
237 259 243 111 154 253 50 89 118 117 126 96 110 112 107 103 96 88 73 67 59 47 28 25 39 59 64 68 78 85 88 86
329 36 64 58 40 88 99 123 112 116 119 126 124 119 117 113 109 90 78 76 73 66 56 43 52 67 80 77 86 89 93 92
190 145 116 120 139 146 138 110 107 115 123 125 121 126 129 129 116 99 85 86 89 85 73 66 59 73 80 90 95 94 91 90
173 139 145 147 110 117 103 105 106 102 101 121 127 133 134 127 117 109 106 99 92 87 90 87 86 82 79 86 95 95 91 92
290 125 216 151 137 134 131 128 123 122 120 124 131 132 131 121 115 114 113 112 100 92 98 94 93 89 95 93 96 106 107 102
78 87 85 118 140 144 134 135 135 131 134 135 139 136 118 116 112 113 108 108 111 103 100 100 95 98 101 101 101 99 103 107